Wind_Speed
4 5 10 13 14 14 16 17 13 9 9 11 12 11 10 10 10 11 15 16 19 20 11 4 11 12 14 16 18 19 18 17 19 23 25 26 26 26 27 28 28 27 26 25 25 24 25 26 28 30 31 32 33 33 33 33 32 32 32 32 33 33 33 33 34 34 35 35 35 36 36 37 37 38 39 39 39 39 39 40 40 41 42 42 42 43
5 9 17 17 14 14 16 16 13 10 9 7 8 11 11 14 17 12 10 14 19 16 8 6 11 12 12 15 16 15 14 17 20 23 26 26 26 28 30 31 31 31 29 28 26 24 24 24 25 27 29 30 31 32 32 32 32 32 32 33 33 33 33 33 34 35 35 36 36 37 37 38 39 40 41 42 42 43 43 43 44 44 45 45 46 46
8 15 17 15 15 14 14 14 12 9 6 3 10 15 17 19 19 13 11 16 17 11 6 7 12 13 14 14 13 12 15 18 20 24 27 28 30 32 34 34 34 33 32 31 28 26 25 24 24 25 27 28 30 31 32 32 32 32 33 33 33 34 34 34 35 36 36 37 38 39 39 40 41 41 42 43 43 44 44 44 44 45 45 46 46 47
11 16 14 14 15 13 13 14 14 10 5 6 12 18 20 20 19 17 18 17 11 6 4 5 9 11 13 13 12 15 17 16 19 24 26 29 34 36 36 36 34 33 32 31 30 29 27 26 26 26 26 28 29 30 31 32 33 33 33 34 34 35 35 35 36 37 38 39 39 40 40 41 41 42 42 43 44 44 45 45 45 45 46 45 46 46
15 14 14 14 13 14 15 15 17 16 9 7 14 19 19 18 16 16 18 15 7 4 7 6 3 4 10 13 15 18 17 17 23 26 26 31 35 35 34 33 33 32 31 30 30 30 29 28 28 28 27 28 29 30 31 32 33 34 34 34 35 35 36 36 36 37 37 38 39 39 40 41 42 43 44 45 46 47 48 48 48 49 49 49 48 48
17 14 13 13 14 15 16 17 20 19 12 7 15 18 14 14 14 13 15 14 6 4 8 9 1 2 9 14 14 16 18 22 26 26 29 34 34 32 31 31 31 31 30 30 29 29 29 29 29 29 29 29 29 30 30 31 32 33 34 35 35 35 35 36 36 37 37 39 40 41 43 44 45 47 48 49 50 51 51 52 52 52 53 52 52 51
17 14 13 13 14 15 16 19 21 19 15 11 15 14 11 12 13 12 14 11 6 5 6 7 7 3 9 12 12 16 21 24 25 29 33 33 30 28 28 30 30 31 30 30 29 29 29 30 30 30 31 31 31 31 32 32 33 33 34 34 34 35 36 37 38 39 42 44 45 46 48 49 51 52 53 54 55 56 56 56 56 56 56 55 55 54
16 13 12 13 13 15 18 20 20 20 19 16 15 12 9 12 12 10 11 8 7 7 6 4 14 9 7 9 11 15 20 23 27 32 33 30 28 27 28 30 30 31 30 29 29 29 29 30 30 31 32 33 33 34 34 34 34 34 34 35 37 38 39 41 43 44 47 49 50 52 53 55 56 57 58 59 60 60 60 60 60 59 58 57 56 56
16 15 14 14 16 18 20 20 20 21 19 17 16 11 8 11 11 9 9 7 6 7 5 9 18 11 5 9 12 12 16 23 29 32 31 28 28 29 30 30 30 29 29 29 28 27 28 28 30 31 32 33 34 35 35 35 35 36 37 39 41 42 43 46 48 50 53 54 56 57 58 59 60 60 60 61 61 60 61 60 59 58 57 55 54 54
17 18 15 15 18 19 18 18 19 21 20 19 18 12 6 8 12 9 6 7 9 6 3 12 15 8 5 11 12 12 18 25 28 29 29 28 29 30 30 29 29 29 29 29 28 27 27 28 29 31 32 33 34 35 36 36 37 38 40 43 45 46 49 51 52 54 56 57 58 59 59 59 59 59 58 58 57 57 56 56 54 53 52 51 50 50
15 17 15 16 18 16 16 17 17 20 21 21 20 17 8 5 12 10 4 8 9 3 5 13 16 10 4 8 9 14 21 25 26 26 28 28 29 30 30 29 30 31 31 30 30 28 28 29 29 31 33 34 35 37 38 39 41 43 45 48 49 51 53 53 54 54 55 55 55 55 56 55 55 55 54 54 53 52 52 51 50 49 48 47 46 46
13 15 17 18 17 15 15 16 17 18 20 21 20 21 14 7 13 11 5 7 5 2 7 16 18 12 5 8 13 18 21 23 25 26 27 28 30 30 30 31 32 33 33 32 32 31 30 30 30 32 34 35 37 39 41 42 45 47 49 50 50 51 51 51 52 52 52 52 53 53 53 53 53 53 52 52 51 49 48 47 46 45 45 44 43 43
10 13 17 16 16 17 16 16 17 16 19 21 21 22 15 6 9 8 4 5 3 5 12 17 15 11 10 13 17 21 22 25 27 28 27 28 30 31 31 33 34 35 36 36 35 34 33 32 32 34 35 37 39 40 42 44 47 48 49 49 49 49 50 51 51 51 52 51 52 52 53 53 53 52 51 50 49 48 47 45 44 43 43 42 41 41
6 8 13 15 15 17 17 18 18 14 18 22 19 16 10 3 4 3 3 4 4 9 18 21 12 9 13 16 22 26 24 26 30 30 30 30 30 32 33 34 36 37 38 38 38 38 37 34 34 36 38 39 41 43 45 48 50 50 49 49 50 50 50 51 51 51 51 50 50 51 51 52 52 51 50 49 48 47 46 44 42 42 41 41 40 40
5 5 11 13 13 15 16 18 17 11 12 16 14 10 6 4 2 2 3 3 5 12 22 19 7 7 13 19 28 30 25 27 31 32 32 32 32 33 34 35 37 38 38 40 40 40 39 37 37 39 40 41 43 45 48 50 51 51 51 52 52 52 52 52 52 51 51 50 50 49 49 49 49 49 49 47 46 46 45 43 41 41 40 40 39 39
3 4 10 11 11 14 14 14 16 11 7 10 13 10 6 4 1 5 8 10 12 13 14 10 7 13 20 26 29 28 25 28 32 33 34 35 35 35 36 36 37 38 39 40 41 41 40 38 39 40 42 44 45 47 50 50 51 51 52 54 54 54 53 53 52 52 52 52 50 49 48 47 47 47 47 46 45 44 43 42 40 40 40 39 39 39
1 2 8 11 9 11 11 12 14 13 9 9 13 12 6 3 2 6 9 12 12 8 6 9 15 21 22 24 26 25 27 31 33 35 37 36 37 38 39 38 39 39 40 41 41 41 41 40 40 41 43 45 47 48 50 50 50 50 52 53 54 53 53 53 53 53 53 53 52 50 48 47 45 45 44 44 43 42 42 41 39 39 38 38 38 38
0 4 5 10 10 9 10 11 11 12 12 10 10 12 6 1 2 4 7 8 7 4 5 10 18 22 18 19 25 26 28 32 33 36 38 38 40 41 42 41 41 41 41 42 42 42 43 43 43 43 44 46 47 48 49 50 49 49 51 52 52 52 53 53 52 52 52 51 51 50 48 46 45 44 43 42 42 41 40 39 38 38 37 37 38 38
3 4 6 7 11 10 8 10 11 10 11 10 10 13 9 2 2 5 6 5 3 3 5 7 13 21 20 19 24 28 30 32 33 35 38 40 41 43 44 43 42 43 43 42 43 42 43 45 45 46 46 47 48 47 47 48 47 48 49 51 52 52 52 52 52 51 50 50 49 48 47 45 44 42 41 41 40 39 39 39 38 38 38 38 38 39
4 1 4 6 11 11 8 9 9 8 10 10 10 10 9 4 3 6 5 5 4 3 5 6 7 16 22 22 25 29 31 33 34 36 39 41 43 45 45 44 43 44 44 44 44 44 44 45 46 47 47 49 49 48 48 48 48 48 49 50 52 52 52 52 52 51 50 49 48 47 46 44 42 41 40 39 38 38 38 38 39 39 39 40 40 40
4 2 3 7 9 8 7 9 9 9 10 10 10 9 10 9 4 6 7 9 8 3 3 4 6 20 30 27 26 31 33 35 37 40 42 42 44 46 45 44 45 46 46 47 47 47 48 47 48 49 50 52 53 52 51 51 50 50 49 50 52 52 52 52 52 52 50 49 48 46 44 42 40 39 38 38 38 38 38 39 39 40 40 40 41 41
4 2 5 6 7 8 9 10 10 11 11 13 13 11 12 12 6 4 4 8 9 7 7 5 8 26 37 31 30 36 36 39 41 42 44 44 45 47 47 47 48 49 50 50 51 51 51 50 49 50 52 54 55 56 55 54 53 52 51 50 52 53 52 52 52 52 51 49 47 45 43 41 39 39 38 38 38 39 39 39 39 40 40 40 41 41
2 4 5 5 7 9 11 12 11 13 14 15 16 14 14 12 8 5 3 6 10 13 17 12 12 27 38 33 34 40 39 42 43 42 45 45 46 49 50 51 52 53 54 53 53 52 51 50 48 47 49 52 56 58 58 58 56 55 53 51 52 53 52 52 52 52 51 49 47 45 43 41 40 39 39 39 39 39 39 39 40 40 40 40 40 40
2 4 8 7 10 14 15 14 12 13 15 16 18 18 16 16 15 13 12 14 14 17 20 10 10 25 37 36 37 42 42 44 43 42 45 47 49 51 52 53 53 54 56 54 52 51 49 48 46 45 47 51 55 58 59 60 60 59 56 53 53 53 52 52 52 52 50 48 46 44 42 42 41 41 41 40 40 40 40 40 40 40 41 40 40 40
2 4 8 8 8 10 10 9 8 12 16 18 19 17 19 22 21 19 18 15 13 18 18 7 11 30 40 38 41 44 44 45 44 43 45 47 49 50 50 51 50 51 53 51 49 48 46 46 46 46 47 50 53 56 58 61 62 62 59 55 54 55 53 52 52 51 50 47 45 44 42 42 42 42 42 42 41 41 41 41 41 41 41 41 41 41
4 5 6 5 4 5 6 7 9 14 19 22 21 18 22 26 24 23 18 10 12 19 17 15 23 42 47 43 45 47 46 47 45 44 45 45 46 47 49 50 50 50 50 47 44 44 43 44 44 46 47 49 51 54 56 59 62 63 61 57 56 56 54 52 51 50 49 47 45 43 43 43 43 43 43 42 42 41 41 42 42 41 41 41 41 41
7 8 7 7 8 10 14 16 15 19 23 25 24 23 25 28 27 26 19 16 21 23 22 28 36 44 49 49 48 47 45 45 45 45 46 46 47 50 51 52 52 52 51 48 46 45 44 45 46 47 48 49 51 53 55 57 59 62 61 58 56 56 55 52 50 49 48 46 44 43 43 43 43 43 42 42 42 42 42 42 42 41 41 41 41 40
10 12 10 11 14 16 18 21 20 21 24 26 27 27 28 28 28 29 26 26 27 21 25 39 41 39 48 53 48 45 44 44 45 47 48 50 52 53 54 55 55 54 52 51 50 49 49 49 49 49 50 51 52 53 54 55 57 60 61 58 55 55 54 51 50 48 47 45 44 43 43 43 43 43 42 42 41 41 42 42 42 41 41 41 40 40
13 15 13 15 19 19 19 21 20 20 22 25 28 30 30 29 30 33 32 32 30 27 33 45 45 44 52 52 47 45 44 45 47 49 51 53 54 55 56 57 57 55 54 52 52 53 52 51 50 50 51 52 53 53 53 53 54 58 61 58 54 54 53 50 49 48 46 45 44 43 43 43 43 43 42 41 41 41 41 41 41 41 41 40 40 40
14 16 16 19 23 23 22 21 20 21 24 28 32 33 32 28 27 31 33 31 32 35 40 45 46 49 52 50 47 46 45 46 48 49 51 53 53 54 55 56 58 58 58 56 56 57 55 52 51 51 52 53 53 54 53 53 54 57 59 56 54 54 52 50 49 47 45 45 44 43 43 43 43 43 42 41 41 41 41 41 41 41 40 40 40 40
15 17 18 21 26 27 24 22 23 23 25 32 35 30 25 22 23 27 30 28 29 35 41 42 45 51 52 50 49 48 46 47 48 49 51 52 53 55 56 59 60 61 60 58 58 58 55 54 54 54 54 54 54 54 55 55 56 57 57 55 54 55 53 51 49 46 45 44 43 43 43 43 43 43 42 42 41 41 41 41 41 40 40 40 40 39
18 19 21 22 26 29 26 23 25 26 29 34 31 21 18 21 25 27 27 25 27 34 39 39 43 50 52 49 49 51 49 49 50 50 52 54 56 58 60 62 62 61 60 59 58 57 56 56 57 56 56 55 55 56 57 58 58 57 57 55 55 55 53 50 48 45 44 43 43 43 43 42 43 42 42 42 41 41 41 41 40 40 40 40 40 39
20 22 24 21 21 28 29 25 27 29 26 23 20 21 26 28 26 25 25 27 30 34 37 41 46 50 50 47 49 52 52 51 51 52 54 57 59 60 62 62 62 61 60 59 59 59 58 59 58 58 57 57 57 58 60 60 58 56 55 54 55 55 52 49 46 44 43 42 42 42 42 42 42 42 42 42 41 41 41 40 40 40 40 40 40 39
23 24 26 21 20 27 31 30 27 20 11 12 22 29 29 25 22 24 27 31 35 36 38 43 46 46 45 46 48 52 54 55 55 57 59 60 60 61 62 61 60 61 61 62 63 63 63 64 62 59 58 58 59 59 60 61 59 57 56 56 56 54 50 47 44 42 42 42 42 41 41 41 42 42 42 42 41 41 40 40 40 40 40 40 40 40
26 26 26 23 22 28 32 26 14 7 11 23 31 30 24 20 23 29 34 37 40 43 43 41 42 45 48 51 51 53 56 59 60 62 63 61 59 59 60 60 61 62 64 66 67 68 69 69 67 63 61 60 60 60 60 60 58 57 58 58 57 53 48 45 43 41 41 41 41 41 40 40 41 41 42 41 41 40 40 39 40 40 40 40 40 40
25 25 25 24 23 24 22 12 7 17 33 37 30 22 22 24 28 35 42 47 47 44 40 40 46 53 55 55 56 56 58 61 64 65 63 60 60 60 60 61 62 63 65 66 68 69 69 67 65 64 62 60 60 60 60 58 56 56 59 60 57 51 46 43 41 40 40 40 40 40 40 40 41 41 41 41 40 40 39 39 39 39 39 40 39 39
23 23 23 22 19 17 17 18 23 31 35 32 24 23 28 31 32 34 43 51 49 40 38 45 53 57 57 58 59 58 58 63 68 68 63 61 61 59 58 60 62 63 66 67 68 66 64 62 62 62 61 60 59 58 56 55 55 57 60 59 55 48 43 41 40 39 39 40 39 39 39 39 40 41 41 41 40 39 39 39 39 39 39 39 39 39
22 22 21 19 18 18 19 20 20 17 19 25 29 30 32 33 33 34 42 49 45 40 45 53 55 57 58 58 58 58 57 61 67 68 64 60 59 58 59 63 66 68 69 68 65 63 61 61 62 61 60 60 58 54 53 54 56 59 58 56 51 45 40 39 38 38 39 39 38 38 38 39 40 40 41 40 40 39 39 38 38 38 38 39 38 38
23 24 23 21 24 26 23 17 10 11 20 32 36 34 32 32 34 36 37 40 43 46 52 56 55 57 58 56 56 56 55 57 64 66 62 60 60 62 64 67 69 69 69 67 64 62 62 62 61 59 58 57 54 52 53 56 57 56 54 50 46 42 39 38 37 38 38 38 37 37 37 38 39 40 40 40 39 39 38 38 38 38 38 38 38 38
25 25 25 25 28 30 26 22 20 22 30 38 37 33 30 32 37 33 25 32 48 55 54 54 55 56 56 54 54 55 54 55 60 63 62 63 65 66 67 68 69 69 68 67 66 64 62 62 61 58 56 54 52 54 57 57 55 52 49 44 41 39 37 37 37 37 36 36 36 36 36 37 38 39 39 39 38 38 38 37 37 37 37 37 37 37
27 26 26 27 29 29 26 26 29 34 38 37 31 28 30 34 35 29 27 41 56 57 53 54 54 55 56 56 56 56 57 58 60 64 66 66 67 68 68 68 69 69 68 67 66 64 62 61 58 55 53 53 53 56 59 58 54 48 43 39 37 36 36 36 36 36 35 35 35 35 36 36 37 38 38 38 38 37 37 36 36 36 36 36 36 36
26 24 24 26 27 27 26 27 29 33 34 30 28 32 37 36 34 37 45 53 54 52 54 54 53 54 58 60 61 61 63 64 65 67 68 68 67 68 69 69 70 69 69 68 66 64 62 59 55 53 52 53 54 57 57 55 50 43 37 35 34 34 34 35 35 35 34 34 34 34 35 35 36 37 37 37 37 36 36 35 35 35 35 35 35 35
28 25 26 28 26 23 21 19 16 21 30 35 39 42 40 38 41 47 52 54 53 53 55 55 56 59 61 64 67 67 67 68 68 68 68 68 68 69 69 70 70 70 69 68 66 64 60 57 55 53 52 52 52 54 53 49 43 37 34 33 33 33 33 34 34 34 33 33 33 33 34 35 35 36 36 36 35 35 35 34 34 34 34 34 34 35
31 28 27 29 26 21 21 21 21 29 38 42 42 39 38 41 46 47 47 51 54 54 54 57 61 62 63 66 69 68 68 68 68 68 69 69 69 69 69 69 68 67 67 65 64 62 59 57 56 54 53 51 50 48 45 41 37 34 32 32 32 32 33 33 33 33 32 32 32 33 33 34 34 34 35 34 34 34 33 33 33 33 33 33 34 34
33 33 33 35 34 33 35 38 39 39 39 37 37 37 39 44 46 44 45 49 51 53 55 59 62 63 64 66 66 67 68 68 68 69 69 69 69 69 67 66 65 64 64 62 61 60 58 57 56 55 53 51 47 43 38 35 33 32 31 30 31 31 32 32 32 32 31 31 32 32 33 33 33 33 33 33 32 33 32 32 32 32 32 33 33 34
39 38 39 40 42 43 45 44 40 38 36 36 35 35 39 45 45 44 45 48 51 55 57 58 60 62 62 63 64 66 67 67 68 69 68 68 68 66 64 64 63 63 63 61 60 58 57 56 55 53 51 47 42 38 34 32 31 31 29 29 30 31 31 30 30 30 30 31 31 32 32 33 32 32 32 31 31 31 31 31 31 31 31 32 32 34
41 40 41 43 43 43 45 44 40 38 37 37 36 37 42 46 45 44 47 50 52 54 55 56 58 59 60 62 64 65 65 66 67 68 67 66 66 65 64 64 63 63 62 61 59 58 56 55 53 50 47 42 38 35 33 31 30 29 28 28 29 30 30 29 29 30 30 30 30 31 31 31 31 30 30 30 30 30 30 30 30 30 31 31 32 33
38 38 40 40 39 39 43 44 41 39 38 37 37 40 45 48 49 49 49 50 51 52 54 55 57 58 61 62 63 64 65 66 66 66 67 66 65 65 64 63 62 62 61 60 58 57 55 52 50 46 42 38 35 33 32 31 29 28 28 28 28 29 29 29 29 29 29 29 30 30 30 30 29 29 29 29 29 29 29 29 29 30 30 31 32 34
31 33 32 31 33 37 40 41 41 42 43 40 39 44 49 50 51 51 50 50 51 53 55 56 58 59 61 62 63 64 65 65 66 66 66 65 65 64 63 62 62 60 59 59 57 54 51 48 44 41 38 35 34 32 31 29 28 28 28 28 28 28 29 29 29 29 29 29 29 29 28 29 28 29 29 28 28 28 28 29 29 30 30 30 31 33
23 26 25 26 31 36 37 37 38 41 44 44 45 50 53 52 51 51 51 52 53 54 56 57 59 59 61 62 63 64 64 65 65 65 65 65 63 62 61 61 61 59 58 56 54 50 47 43 40 37 35 34 33 32 30 28 27 27 28 28 28 28 29 29 29 29 28 28 28 28 28 28 28 28 28 28 28 28 28 28 28 29 30 30 31 31
21 23 24 26 31 34 36 36 35 37 42 47 50 51 51 50 50 51 51 52 53 55 56 58 59 60 61 62 62 63 64 65 65 65 65 64 62 60 60 60 59 58 56 54 51 48 44 40 37 36 34 33 32 31 29 28 27 27 28 28 28 29 29 29 29 28 28 27 27 27 28 28 28 28 28 27 28 28 29 29 28 28 29 30 31 31
Wind_Direction
336 351 33 35 32 33 34 32 22 19 25 25 16 358 351 333 316 322 320 321 335 350 11 298 268 276 289 302 313 320 329 341 353 356 354 353 350 350 348 346 343 338 333 326 319 311 303 296 291 287 284 282 280 278 276 274 272 271 269 269 268 267 267 267 267 267 268 268 268 269 270 271 272 274 276 278 279 280 281 282 283 283 283 282 281 280
328 25 45 42 36 28 24 23 10 21 45 32 349 343 356 342 335 343 332 331 339 346 360 307 292 297 300 310 317 324 334 342 351 354 353 352 349 347 346 343 342 339 335 331 324 317 309 301 295 291 287 285 283 281 279 277 275 273 271 270 269 268 268 268 268 269 269 270 271 272 273 274 275 277 279 280 282 283 283 284 285 285 285 284 283 282
10 46 50 39 37 26 14 16 13 29 61 357 331 345 357 350 346 352 340 339 339 336 333 296 303 308 306 319 325 323 330 335 345 350 350 349 345 343 341 339 339 338 335 333 327 320 313 306 299 294 290 286 284 282 280 278 276 275 274 273 272 272 271 271 272 273 274 275 276 277 278 279 280 282 284 285 287 287 288 288 288 288 288 287 287 286
40 51 46 34 32 23 10 12 16 29 33 334 342 351 353 351 349 341 339 351 357 353 356 303 301 308 307 320 325 320 325 329 336 341 342 342 340 338 337 337 336 335 335 333 328 322 317 311 305 299 294 290 286 284 282 280 279 277 276 275 275 275 275 276 277 278 279 280 281 282 283 284 284 286 288 290 291 292 293 293 293 293 292 291 291 290
60 49 40 37 27 18 13 11 17 28 28 350 350 354 350 351 353 344 344 1 26 58 34 5 290 282 305 313 320 322 323 323 328 333 334 334 335 335 335 336 335 334 334 332 328 324 319 314 308 303 297 293 289 286 284 282 281 279 278 277 277 277 278 279 280 282 283 285 285 286 288 288 289 291 292 293 294 295 296 296 296 296 295 294 294 293
55 37 28 33 23 17 16 18 23 30 38 8 349 354 357 358 3 3 360 8 39 65 22 15 57 237 296 303 314 321 320 323 328 330 331 332 334 336 336 338 338 336 334 331 328 323 319 314 308 304 298 294 290 287 284 282 280 280 278 278 278 279 280 282 284 286 289 290 291 292 293 294 294 294 294 295 295 295 296 296 296 296 296 295 294 293
47 30 20 24 25 23 25 32 31 29 34 21 356 359 14 13 11 15 11 11 19 352 336 6 27 329 282 286 305 316 317 325 331 329 329 332 336 339 339 338 337 335 333 331 327 324 319 313 308 303 299 294 291 288 286 283 281 280 280 281 282 285 287 289 289 290 293 294 294 294 295 295 295 295 295 295 295 295 295 295 295 295 294 294 293 292
40 24 18 21 29 32 34 38 34 30 30 20 6 10 26 20 14 14 14 13 0 327 270 339 7 349 276 274 300 313 318 326 330 328 328 333 338 340 338 337 335 333 333 331 329 326 321 315 309 304 300 296 292 289 287 285 283 282 283 286 289 290 291 293 293 293 295 295 294 294 294 295 295 294 294 294 294 294 294 294 293 293 292 291 291 290
35 22 26 29 35 37 37 38 36 34 28 19 16 21 28 20 11 7 16 17 340 312 270 338 355 353 289 283 295 307 318 324 327 326 328 334 338 338 336 335 335 334 335 335 333 330 324 317 310 304 299 295 292 289 287 285 284 285 286 290 292 291 292 293 293 293 294 294 293 293 293 294 294 293 293 293 293 292 292 291 291 290 289 288 287 287
35 29 33 34 37 35 34 37 37 34 26 20 22 22 29 21 6 358 14 7 323 296 1 355 354 1 289 274 284 310 324 325 325 325 329 334 335 333 333 333 332 332 333 333 332 329 323 316 309 304 298 294 291 288 286 285 286 287 288 291 292 291 292 292 292 292 293 293 293 293 294 294 294 294 294 294 293 293 292 291 290 289 288 287 285 284
33 30 34 40 42 34 32 36 34 31 25 21 21 24 36 19 357 341 322 358 339 311 33 353 339 346 298 260 288 321 327 326 326 327 330 332 332 330 329 328 328 328 328 328 326 323 319 314 309 304 298 294 292 290 289 289 289 290 290 292 293 292 293 294 294 295 296 297 297 296 296 297 297 296 296 296 295 295 294 293 291 290 288 286 285 284
27 24 28 38 42 34 35 37 32 30 25 22 24 28 33 13 358 347 320 4 360 303 347 334 325 324 280 265 303 319 325 329 330 330 330 330 329 327 326 324 323 324 325 325 323 320 317 313 307 302 299 296 294 293 293 292 293 294 295 297 297 298 299 299 300 300 300 300 300 299 299 299 299 298 298 297 296 296 295 294 292 290 289 287 285 284
15 20 24 28 31 27 26 28 30 27 21 23 26 26 27 7 1 1 337 354 326 288 322 326 321 307 269 273 303 316 324 332 334 333 331 329 326 325 324 323 322 323 324 323 322 319 316 312 306 301 298 296 294 293 292 293 297 299 301 302 302 302 303 302 302 302 301 301 301 300 300 300 300 299 299 299 298 297 296 294 293 290 289 287 285 284
3 16 17 21 27 24 21 23 25 20 22 27 25 23 26 15 2 345 308 329 292 292 312 316 310 283 272 286 311 319 321 328 334 333 332 329 325 324 323 322 322 322 321 320 319 317 315 311 305 300 298 296 295 293 293 296 301 305 306 306 306 305 305 304 304 303 303 302 302 301 301 300 299 299 299 299 298 297 296 294 293 291 289 288 286 285
32 17 10 19 27 23 25 29 26 21 27 27 24 29 40 51 65 261 307 317 276 297 310 312 294 264 283 298 312 317 317 322 329 330 330 328 325 325 324 323 322 320 319 318 316 314 312 309 303 299 298 297 296 296 297 301 305 308 308 308 307 306 306 306 305 305 305 305 304 303 301 300 299 299 299 298 297 296 295 294 292 291 289 288 287 286
48 18 11 17 19 20 24 24 24 32 39 24 24 26 17 29 30 267 292 289 282 298 306 302 289 288 292 297 305 313 315 318 323 324 325 325 325 324 324 324 321 319 318 316 314 312 310 307 302 300 299 299 299 299 300 304 306 307 307 307 306 306 306 306 307 307 307 306 306 304 303 302 300 298 297 297 296 295 294 293 292 290 289 289 288 288
228 299 10 14 9 15 18 15 22 33 32 22 24 20 3 8 343 290 291 292 292 295 290 294 302 301 299 301 307 313 315 317 319 320 321 323 323 323 324 324 322 320 318 316 314 311 309 307 303 301 300 299 300 300 300 303 305 305 305 304 305 305 306 306 307 307 307 306 306 305 305 303 300 298 296 295 295 294 293 292 291 290 289 289 288 288
341 252 333 4 1 1 6 7 17 26 25 23 24 23 17 354 333 301 288 298 299 282 280 289 298 304 303 303 310 313 314 317 317 317 320 321 322 322 323 323 321 320 318 315 314 311 309 308 306 304 302 300 301 300 300 302 303 304 304 304 305 305 306 306 306 306 306 305 305 305 304 302 300 298 296 295 294 293 293 292 292 291 290 290 289 289
53 257 282 341 354 356 359 2 6 8 8 9 13 19 22 15 286 297 296 297 295 289 284 280 296 304 299 294 305 312 315 319 319 318 319 320 320 320 321 321 320 318 317 315 314 312 310 309 308 307 305 302 301 302 302 303 304 305 305 305 306 306 306 306 306 306 305 305 305 304 303 301 300 298 296 295 293 292 292 292 292 292 292 292 291 291
54 327 266 302 335 350 354 350 348 340 345 352 353 2 10 12 261 282 286 256 263 289 284 290 295 297 300 301 305 313 319 321 322 320 320 319 318 317 318 319 318 317 316 316 316 314 313 311 309 307 305 303 304 306 306 307 308 308 308 308 307 308 308 307 307 307 306 306 305 303 302 300 299 297 295 294 293 292 292 292 292 292 292 292 292 292
51 17 288 292 310 324 332 333 331 330 336 336 330 329 335 344 322 285 277 255 255 248 272 311 280 289 309 320 314 317 323 323 323 322 320 318 316 315 317 318 318 318 319 319 319 317 316 314 311 309 308 308 309 310 310 310 310 309 310 310 309 309 309 308 308 307 307 306 304 302 301 299 298 296 294 293 292 292 292 292 292 292 292 292 292 292
46 343 283 278 284 286 300 318 323 325 329 326 324 312 308 324 327 293 275 252 249 245 263 282 267 295 319 331 322 322 323 321 323 321 318 317 315 315 317 319 321 321 322 322 321 320 318 316 314 311 310 309 309 309 309 309 309 309 311 311 309 309 309 308 308 307 306 305 302 301 300 298 296 294 292 292 292 292 292 291 291 291 292 292 292 292
15 345 320 280 264 277 295 309 311 313 320 322 321 310 301 305 295 276 254 260 272 271 275 273 259 296 321 331 322 321 322 320 322 320 317 317 316 317 319 321 323 322 322 322 320 319 317 314 312 308 305 305 306 307 308 309 309 309 310 310 309 309 309 308 307 305 304 303 301 300 298 296 295 293 292 292 292 291 291 291 291 291 292 292 292 292
349 354 342 306 271 274 282 287 288 295 306 313 318 314 303 297 293 284 270 272 279 273 274 273 247 289 317 325 317 316 317 317 320 318 316 317 317 319 319 318 320 319 318 317 314 314 311 308 306 303 301 302 303 305 306 308 309 309 310 310 309 309 309 308 306 304 303 302 300 298 296 295 294 293 293 293 292 292 291 291 292 292 293 293 293 293
8 346 338 322 292 283 281 286 295 301 306 311 314 307 295 296 295 288 280 276 273 270 269 247 251 289 311 317 311 313 316 316 319 318 316 316 314 313 311 311 313 313 311 309 307 307 306 303 302 300 297 297 298 300 302 304 305 307 308 310 309 308 308 307 305 303 302 300 298 296 295 294 293 293 293 293 293 292 292 292 293 293 294 294 294 294
333 325 327 318 296 288 292 299 306 307 305 304 306 297 290 295 294 291 290 268 259 274 261 234 268 297 313 315 310 313 316 315 317 314 311 310 308 307 307 308 309 309 309 308 306 304 301 299 296 293 292 291 291 294 297 299 301 304 307 309 308 307 307 306 304 302 300 298 296 295 294 293 292 292 292 292 292 292 292 293 293 293 294 294 294 294
321 314 309 293 284 287 290 294 298 298 295 296 302 299 292 294 294 291 283 262 271 283 269 263 279 296 309 314 314 317 318 315 313 311 310 311 311 311 311 311 312 313 314 312 310 307 303 300 297 294 293 291 289 291 294 296 298 301 304 307 307 305 305 304 302 300 298 296 295 294 293 292 292 292 292 292 291 291 292 292 292 293 293 293 293 293
317 311 308 298 297 297 295 298 300 293 289 293 301 301 295 293 291 285 278 279 288 286 279 291 298 296 302 314 320 323 322 317 314 314 315 316 315 314 314 314 315 315 314 310 308 307 304 300 298 295 293 291 290 292 294 295 297 298 301 305 305 303 302 302 301 299 296 294 293 292 292 291 291 291 291 291 291 291 291 291 291 292 292 292 292 292
310 309 311 305 304 305 304 306 303 293 292 297 302 303 299 293 286 283 285 292 291 275 279 301 307 299 304 318 326 326 322 317 316 316 316 316 314 314 314 315 315 313 310 307 305 306 304 300 298 295 293 292 292 293 295 296 295 296 300 303 303 302 302 301 299 297 294 292 291 291 291 291 291 291 291 290 290 290 291 291 291 291 291 291 291 292
305 306 311 307 304 307 310 310 306 303 303 304 307 308 303 294 286 283 287 294 290 281 289 304 304 302 313 325 326 323 320 317 315 314 312 313 312 310 309 310 312 312 311 308 307 307 306 302 301 299 297 297 296 296 297 298 297 297 300 304 304 303 303 300 298 295 293 291 291 291 291 291 291 291 291 291 291 291 290 291 291 291 291 291 291 291
304 304 309 308 305 308 315 315 312 312 310 306 308 310 303 294 290 288 291 295 292 290 300 306 299 302 320 328 321 318 317 314 311 310 310 311 310 309 308 308 310 312 312 309 308 309 308 306 305 304 302 300 299 299 300 301 301 302 304 306 305 303 302 299 296 294 291 290 290 290 291 291 291 291 291 291 291 291 291 291 291 291 290 290 290 291
303 303 306 310 307 308 317 318 313 312 308 303 306 313 310 301 298 298 298 298 297 298 302 301 294 302 319 325 319 318 316 311 309 309 309 310 311 310 310 310 311 312 311 310 310 311 311 309 308 307 305 302 300 300 302 303 305 306 307 306 304 301 299 297 294 292 290 290 290 290 290 291 291 291 291 292 291 291 291 291 291 291 291 291 291 291
300 300 305 310 303 302 312 316 313 312 308 301 308 320 319 312 305 302 300 302 305 304 300 298 300 309 319 320 317 317 316 312 311 310 310 310 310 311 312 313 312 312 312 311 312 313 313 312 311 308 305 304 302 302 304 305 307 309 308 305 301 299 297 295 293 290 289 289 290 290 291 291 292 292 292 292 292 291 292 291 291 291 291 291 292 292
295 298 303 303 292 296 307 314 313 311 297 298 313 318 317 312 303 299 301 306 311 311 307 305 308 314 319 319 317 315 315 314 312 311 313 312 311 313 314 314 313 312 313 313 315 315 315 314 312 308 305 304 304 304 304 306 308 309 307 303 300 298 296 294 292 290 290 290 290 291 292 293 293 293 293 293 292 292 292 291 291 291 291 292 292 292
292 295 298 297 290 296 307 315 316 288 281 301 311 316 319 315 308 306 308 312 319 321 319 315 315 319 321 320 318 316 315 315 314 314 317 316 314 315 315 314 314 315 316 316 317 316 314 311 310 308 307 307 306 305 304 306 308 307 305 302 300 298 296 293 291 290 290 291 291 292 293 294 294 294 293 293 293 292 292 292 291 291 291 291 292 292
292 292 294 295 293 295 300 299 273 288 302 310 314 320 324 319 317 316 315 319 326 327 323 321 322 323 322 320 319 318 316 315 315 318 320 319 317 316 315 315 316 316 316 314 311 310 309 309 308 309 309 309 307 305 305 306 306 303 302 301 299 297 295 291 290 291 291 291 292 293 295 295 294 294 294 294 294 294 293 292 292 292 291 291 292 292
293 291 293 294 292 289 285 280 284 295 306 314 318 324 325 322 322 320 315 319 327 329 325 324 324 322 321 320 319 319 318 316 317 321 322 319 317 316 312 312 312 311 310 308 308 309 310 310 310 309 310 309 307 306 306 305 302 300 299 299 298 296 293 291 291 292 291 292 294 295 296 295 295 295 295 295 295 295 294 293 292 292 292 292 292 292
295 290 288 285 284 285 284 290 299 300 303 309 313 320 324 323 324 320 312 316 327 331 326 324 322 320 321 321 320 320 318 315 315 319 321 318 315 312 307 306 307 307 308 310 312 314 313 312 311 311 310 309 308 307 304 301 299 299 299 299 298 295 293 292 292 292 292 294 295 296 297 296 295 295 295 295 295 295 294 293 293 293 292 292 292 293
296 294 289 279 279 283 280 280 281 270 288 305 312 318 322 322 322 319 312 315 326 328 323 321 320 320 321 321 320 319 316 311 312 316 316 312 310 308 305 305 308 310 312 315 316 316 314 313 312 311 309 309 308 304 301 300 301 301 301 299 296 294 294 293 292 292 293 295 297 297 298 297 296 296 296 296 296 295 294 294 293 293 293 293 293 294
297 296 290 281 282 285 278 272 270 271 289 306 312 314 320 321 320 318 312 316 322 323 320 318 318 318 319 320 319 317 313 309 309 310 310 308 308 309 309 310 312 314 316 317 317 316 314 313 313 311 309 307 304 301 301 303 305 304 302 297 293 293 294 293 292 293 295 297 298 298 298 298 297 297 296 297 296 295 295 295 294 294 294 294 294 295
298 295 290 286 288 286 275 268 273 282 297 309 312 314 320 322 318 314 310 315 319 320 320 318 317 316 318 318 318 316 313 310 308 308 309 309 310 312 313 314 315 317 317 317 316 315 314 313 313 310 307 304 302 301 303 306 307 305 301 296 294 295 294 292 293 296 297 298 299 299 299 298 298 297 297 297 296 296 296 295 295 294 294 294 295 296
296 295 290 287 289 289 280 272 275 288 304 314 315 317 320 318 314 312 314 317 319 319 319 318 316 316 316 317 317 316 315 314 313 312 313 313 314 315 316 316 317 317 317 317 316 315 314 314 313 309 306 304 302 301 304 306 307 304 300 296 296 296 294 293 295 297 298 300 301 301 300 299 298 298 297 297 297 296 296 296 295 295 295 296 296 297
294 290 287 290 294 293 282 270 271 294 308 313 313 314 315 316 317 319 320 320 320 319 318 317 316 316 315 315 316 316 316 316 316 315 316 316 316 316 316 317 317 317 317 316 315 315 315 314 312 310 308 306 303 303 305 307 306 303 299 299 298 296 294 295 297 298 301 303 303 302 302 300 299 299 298 298 298 298 297 297 296 296 297 298 298 298
294 290 290 294 295 288 277 273 282 297 305 309 311 311 313 320 324 324 320 319 320 320 318 316 315 315 314 314 315 316 316 317 318 318 318 317 317 317 317 318 318 317 316 315 315 315 315 314 314 313 311 310 308 308 308 307 305 302 301 300 298 296 296 298 299 302 304 305 304 304 302 301 300 299 299 299 299 298 298 298 298 299 299 299 300 300
298 299 298 295 294 294 291 290 297 305 309 313 313 313 318 326 328 324 319 317 317 316 314 312 312 313 314 314 315 316 317 319 319 319 318 318 318 320 320 320 319 318 317 318 318 318 318 317 317 316 315 313 312 311 310 307 305 303 302 300 298 298 298 300 303 306 307 307 306 305 303 302 301 300 300 300 300 299 299 299 300 300 300 301 301 301
304 305 301 298 303 306 301 300 308 314 315 315 314 316 323 328 326 320 315 312 311 311 311 311 312 314 315 315 316 318 319 320 320 320 320 320 321 323 323 322 321 321 321 322 322 322 322 321 320 319 317 316 315 314 312 308 305 304 303 302 300 300 302 305 307 309 309 308 307 305 304 303 303 302 302 302 301 301 302 302 302 302 302 302 303 302
308 308 303 304 310 308 301 304 314 316 315 317 316 318 324 326 321 315 311 310 311 312 313 314 315 317 318 318 319 321 321 322 321 322 322 323 324 325 325 324 324 324 325 325 326 326 325 325 324 322 320 319 318 316 312 309 308 308 306 305 304 304 307 310 311 311 310 309 308 307 306 305 304 304 303 303 303 303 303 303 303 303 304 304 304 304
310 308 307 310 312 305 301 308 316 315 315 317 316 319 325 324 319 317 316 316 316 317 317 318 319 320 320 321 323 323 324 324 324 324 324 326 327 327 327 327 327 328 328 329 329 329 328 328 327 326 324 322 320 317 314 314 314 313 310 308 309 311 313 314 314 313 313 312 310 309 308 307 306 306 305 305 305 305 305 305 305 305 306 307 306 306
314 309 310 312 309 304 305 313 318 316 316 318 319 322 324 322 320 321 321 320 320 321 322 323 323 322 323 324 325 326 325 325 325 326 327 329 330 330 330 329 330 331 331 331 331 331 331 331 330 329 327 324 321 319 319 320 319 317 314 314 316 317 318 317 316 316 315 314 313 312 310 309 308 308 307 308 307 307 307 307 307 308 309 308 308 308
314 311 313 310 306 307 312 317 318 316 316 320 323 324 322 321 321 322 322 323 324 325 325 325 325 325 326 326 327 327 326 326 328 330 331 332 332 332 331 331 332 333 333 333 334 335 335 334 334 332 329 325 324 324 325 325 322 320 320 321 322 322 321 320 320 319 318 317 315 313 312 311 310 310 310 310 309 308 308 308 309 309 310 309 309 309
313 313 311 306 305 310 317 319 317 315 316 321 323 322 321 322 323 323 325 326 326 326 326 326 327 328 328 328 328 328 328 330 332 333 333 333 333 333 333 334 335 336 336 336 337 337 337 336 335 333 330 329 330 331 332 330 327 325 326 326 326 325 325 323 322 321 320 319 316 314 313 313 312 312 312 311 310 310 309 310 310 311 311 311 311 311
Height
3113 3113 3113 3114 3114 3114 3114 3114 3114 3114 3114 3113 3113 3113 3113 3112 3111 3110 3109 3108 3107 3106 3106 3104 3103 3102 3102 3101 3100 3098 3096 3095 3095 3093 3092 3091 3090 3089 3087 3086 3084 3083 3082 3080 3079 3078 3077 3076 3075 3074 3073 3072 3071 3070 3069 3068 3067 3066 3065 3065 3063 3063 3062 3060 3059 3058 3057 3057 3056 3054 3053 3052 3051 3050 3049 3048 3048 3047 3046 3045 3045 3043 3042 3042 3041 3040
3114 3114 3114 3115 3116 3115 3114 3115 3114 3113 3112 3113 3113 3112 3112 3110 3109 3108 3107 3107 3106 3105 3105 3103 3101 3100 3100 3100 3099 3098 3096 3094 3094 3092 3091 3090 3089 3088 3086 3084 3083 3081 3080 3078 3077 3076 3075 3074 3073 3072 3071 3070 3069 3068 3067 3066 3065 3064 3063 3062 3061 3060 3059 3058 3057 3056 3055 3054 3053 3052 3051 3050 3049 3047 3046 3045 3044 3044 3043 3042 3041 3039 3038 3037 3036 3035
3113 3114 3116 3117 3116 3115 3115 3115 3114 3112 3112 3112 3111 3110 3110 3108 3107 3106 3106 3106 3104 3104 3104 3102 3100 3099 3098 3099 3098 3097 3096 3094 3093 3091 3089 3088 3087 3086 3084 3082 3081 3079 3077 3076 3075 3074 3073 3072 3071 3070 3069 3068 3067 3066 3065 3064 3063 3062 3060 3060 3059 3058 3057 3056 3055 3054 3052 3051 3050 3049 3048 3047 3046 3045 3043 3042 3041 3040 3039 3038 3036 3035 3034 3032 3031 3030
3114 3116 3117 3117 3116 3116 3115 3115 3113 3112 3111 3111 3110 3109 3108 3107 3106 3104 3103 3103 3102 3102 3103 3102 3100 3098 3097 3097 3097 3096 3095 3094 3092 3091 3089 3088 3086 3084 3082 3081 3079 3077 3076 3074 3073 3072 3070 3069 3069 3068 3067 3066 3065 3064 3063 3062 3061 3060 3059 3057 3056 3055 3055 3054 3052 3051 3050 3049 3048 3046 3045 3044 3042 3041 3040 3038 3036 3035 3034 3032 3031 3029 3028 3027 3025 3024
3115 3117 3117 3116 3116 3115 3114 3113 3112 3111 3110 3110 3110 3108 3107 3106 3105 3104 3102 3101 3101 3101 3102 3101 3100 3098 3096 3095 3095 3094 3094 3093 3092 3091 3089 3088 3086 3084 3082 3080 3078 3076 3074 3073 3071 3070 3068 3067 3066 3065 3065 3064 3063 3062 3061 3060 3059 3058 3056 3055 3054 3053 3052 3051 3050 3048 3047 3046 3044 3043 3042 3040 3039 3037 3035 3034 3032 3030 3029 3027 3025 3023 3022 3021 3019 3018
3116 3117 3117 3117 3116 3115 3113 3112 3111 3110 3110 3110 3110 3108 3107 3106 3105 3104 3103 3101 3101 3101 3101 3101 3100 3099 3097 3095 3094 3093 3093 3092 3091 3090 3089 3087 3085 3082 3080 3078 3077 3075 3073 3071 3070 3068 3067 3065 3064 3063 3062 3061 3060 3059 3058 3057 3056 3055 3054 3052 3051 3050 3049 3048 3047 3045 3044 3042 3041 3039 3037 3036 3034 3032 3030 3028 3027 3025 3023 3022 3020 3017 3015 3014 3012 3011
3117 3118 3118 3117 3116 3115 3113 3111 3111 3111 3110 3110 3109 3108 3107 3106 3105 3104 3103 3101 3101 3101 3101 3100 3100 3099 3097 3094 3094 3093 3092 3091 3090 3088 3087 3085 3083 3081 3079 3076 3075 3073 3071 3070 3068 3066 3065 3064 3062 3061 3060 3059 3057 3056 3055 3054 3053 3051 3050 3049 3048 3047 3046 3045 3043 3042 3040 3038 3036 3034 3032 3030 3028 3026 3024 3022 3020 3019 3017 3015 3013 3011 3009 3007 3005 3004
3119 3119 3118 3117 3115 3114 3113 3112 3112 3111 3110 3110 3109 3108 3106 3106 3105 3104 3103 3102 3101 3101 3101 3099 3098 3098 3096 3094 3093 3091 3090 3089 3088 3086 3084 3082 3081 3079 3077 3075 3073 3071 3069 3067 3066 3064 3063 3062 3060 3059 3058 3056 3055 3053 3052 3051 3050 3048 3047 3046 3045 3044 3042 3040 3039 3037 3035 3033 3031 3028 3026 3024 3021 3019 3017 3015 3013 3011 3009 3008 3006 3003 3001 2999 2998 2996
3120 3119 3117 3116 3115 3114 3113 3113 3112 3112 3111 3110 3109 3107 3106 3105 3104 3103 3103 3101 3101 3101 3100 3098 3097 3097 3096 3093 3092 3091 3089 3088 3086 3084 3082 3080 3078 3076 3075 3073 3071 3069 3067 3065 3063 3062 3060 3059 3058 3057 3055 3053 3052 3051 3049 3048 3046 3045 3044 3042 3040 3039 3037 3035 3033 3031 3029 3026 3023 3021 3019 3016 3014 3011 3009 3007 3005 3003 3001 3000 2997 2995 2993 2991 2990 2988
3120 3119 3118 3116 3115 3114 3114 3114 3113 3112 3112 3110 3109 3107 3105 3104 3104 3103 3102 3101 3100 3100 3100 3098 3098 3098 3095 3091 3091 3091 3089 3088 3085 3082 3080 3077 3076 3074 3072 3071 3069 3067 3065 3063 3061 3059 3058 3056 3055 3053 3052 3050 3049 3047 3046 3044 3043 3041 3040 3038 3036 3034 3032 3029 3027 3025 3022 3019 3016 3013 3011 3008 3006 3003 3001 2999 2997 2995 2993 2991 2989 2987 2985 2984 2982 2980
3120 3119 3119 3117 3116 3116 3115 3114 3113 3113 3112 3110 3108 3106 3104 3104 3103 3102 3102 3101 3101 3100 3099 3098 3098 3099 3096 3091 3090 3090 3088 3086 3084 3081 3078 3076 3074 3072 3070 3068 3067 3065 3063 3061 3059 3057 3055 3053 3052 3050 3048 3047 3045 3044 3042 3040 3039 3037 3035 3033 3031 3028 3026 3023 3020 3018 3015 3012 3009 3006 3004 3001 2999 2996 2994 2992 2990 2988 2986 2984 2982 2980 2978 2977 2975 2973
3120 3119 3118 3117 3117 3117 3116 3114 3113 3113 3112 3110 3108 3105 3104 3104 3103 3102 3101 3102 3102 3101 3099 3098 3097 3097 3095 3091 3089 3089 3087 3085 3083 3080 3077 3074 3072 3070 3068 3066 3064 3062 3060 3058 3056 3054 3052 3050 3049 3047 3045 3044 3042 3040 3038 3036 3034 3032 3030 3027 3024 3022 3019 3016 3014 3011 3008 3006 3003 3000 2997 2995 2992 2989 2987 2985 2983 2981 2979 2977 2975 2973 2972 2970 2969 2967
3120 3120 3119 3118 3117 3117 3116 3114 3113 3113 3111 3110 3108 3106 3106 3106 3106 3105 3103 3102 3102 3101 3099 3098 3097 3095 3092 3089 3088 3087 3085 3083 3080 3077 3075 3072 3070 3067 3065 3063 3061 3059 3056 3054 3052 3050 3049 3047 3045 3043 3042 3040 3038 3036 3034 3032 3030 3027 3024 3021 3018 3015 3012 3009 3007 3004 3002 2999 2996 2993 2991 2988 2985 2983 2980 2978 2976 2974 2972 2971 2969 2967 2966 2964 2963 2961
3120 3120 3120 3119 3118 3117 3115 3114 3113 3113 3111 3110 3109 3109 3109 3109 3110 3110 3106 3104 3103 3100 3098 3098 3097 3093 3089 3087 3086 3084 3082 3080 3077 3075 3073 3070 3068 3065 3063 3061 3058 3056 3053 3051 3049 3047 3045 3043 3042 3039 3038 3036 3034 3032 3029 3027 3024 3021 3018 3015 3012 3009 3006 3003 3000 2998 2995 2993 2990 2987 2984 2982 2979 2976 2974 2972 2969 2967 2966 2964 2963 2961 2960 2958 2957 2956
3121 3120 3120 3119 3118 3117 3116 3114 3114 3113 3112 3111 3111 3111 3111 3111 3113 3112 3108 3106 3104 3100 3097 3096 3095 3091 3086 3084 3083 3081 3079 3077 3074 3072 3070 3068 3066 3063 3061 3058 3056 3053 3051 3048 3046 3043 3041 3040 3038 3035 3033 3031 3029 3026 3023 3021 3018 3015 3011 3008 3005 3003 3000 2997 2994 2991 2989 2986 2984 2981 2979 2976 2973 2970 2968 2966 2963 2961 2960 2958 2957 2955 2954 2952 2951 2950
3121 3122 3121 3120 3119 3118 3116 3115 3115 3113 3113 3113 3112 3111 3111 3111 3112 3111 3107 3105 3103 3100 3097 3094 3092 3088 3085 3082 3081 3079 3076 3074 3072 3069 3068 3065 3063 3060 3058 3056 3053 3050 3048 3045 3042 3040 3038 3036 3033 3031 3028 3026 3023 3021 3018 3015 3012 3009 3006 3002 3000 2997 2994 2991 2988 2984 2982 2979 2977 2974 2972 2969 2967 2964 2962 2960 2958 2956 2954 2953 2951 2950 2948 2947 2946 2944
3122 3122 3121 3120 3120 3118 3117 3116 3115 3113 3113 3113 3111 3110 3110 3110 3109 3108 3106 3104 3102 3100 3096 3092 3089 3086 3083 3079 3077 3076 3073 3071 3069 3067 3064 3062 3059 3057 3054 3052 3050 3047 3044 3041 3038 3036 3033 3031 3029 3026 3023 3020 3018 3015 3012 3009 3007 3004 3001 2997 2994 2991 2988 2984 2981 2978 2975 2972 2970 2967 2965 2963 2960 2958 2956 2954 2952 2950 2948 2947 2946 2944 2943 2941 2940 2939
3122 3121 3121 3120 3119 3118 3117 3116 3114 3113 3113 3112 3111 3110 3109 3109 3108 3108 3106 3103 3102 3100 3094 3090 3087 3083 3081 3076 3073 3072 3071 3069 3067 3064 3061 3059 3056 3053 3050 3048 3046 3043 3041 3038 3034 3031 3028 3025 3023 3020 3018 3015 3012 3010 3007 3005 3002 2999 2995 2992 2988 2985 2982 2979 2976 2973 2970 2967 2964 2961 2959 2957 2954 2952 2950 2948 2947 2945 2943 2941 2940 2939 2937 2936 2935 2933
3122 3121 3120 3120 3119 3118 3116 3115 3113 3112 3112 3111 3110 3109 3108 3108 3107 3107 3106 3103 3103 3100 3092 3087 3085 3082 3079 3075 3071 3070 3069 3066 3064 3061 3058 3055 3052 3049 3046 3044 3042 3039 3037 3034 3031 3027 3023 3020 3016 3014 3011 3008 3006 3005 3002 3000 2997 2993 2990 2986 2982 2979 2976 2973 2970 2967 2964 2961 2958 2955 2953 2951 2948 2946 2944 2942 2941 2939 2938 2936 2935 2933 2932 2931 2929 2928
3121 3121 3120 3119 3118 3117 3116 3114 3113 3112 3111 3110 3109 3108 3107 3107 3106 3106 3105 3104 3103 3100 3093 3087 3083 3078 3075 3073 3071 3069 3066 3064 3061 3058 3055 3052 3049 3046 3043 3041 3038 3036 3033 3030 3026 3023 3019 3015 3011 3008 3005 3002 2999 2998 2995 2992 2989 2986 2983 2979 2976 2973 2969 2966 2963 2960 2958 2955 2952 2949 2947 2945 2943 2941 2939 2937 2935 2934 2932 2931 2929 2928 2926 2925 2924 2922
3121 3121 3120 3119 3118 3117 3115 3114 3113 3111 3111 3109 3108 3107 3106 3105 3105 3104 3103 3101 3100 3099 3096 3091 3082 3073 3071 3071 3069 3066 3063 3060 3058 3054 3051 3049 3046 3043 3040 3037 3035 3031 3028 3024 3020 3017 3013 3010 3006 3002 2998 2994 2991 2989 2987 2985 2982 2980 2977 2973 2969 2966 2963 2959 2956 2953 2951 2949 2946 2944 2941 2939 2937 2935 2934 2932 2930 2929 2927 2925 2924 2922 2921 2919 2918 2916
3121 3121 3120 3118 3117 3116 3115 3114 3112 3111 3110 3108 3107 3106 3104 3104 3104 3103 3101 3099 3098 3097 3095 3093 3082 3067 3065 3067 3064 3062 3060 3057 3055 3051 3048 3045 3042 3038 3035 3032 3029 3025 3022 3018 3014 3010 3006 3003 2999 2995 2990 2987 2984 2981 2979 2977 2976 2973 2971 2968 2964 2960 2957 2953 2950 2947 2945 2943 2940 2938 2936 2933 2932 2930 2928 2927 2925 2923 2922 2920 2918 2917 2915 2914 2912 2911
3121 3120 3119 3117 3117 3116 3114 3113 3111 3110 3108 3107 3106 3104 3103 3103 3102 3102 3101 3097 3097 3095 3091 3092 3083 3064 3060 3064 3061 3059 3057 3054 3052 3049 3044 3041 3037 3033 3029 3026 3022 3018 3015 3012 3008 3004 3000 2997 2994 2991 2986 2982 2978 2975 2972 2970 2967 2966 2964 2962 2958 2954 2952 2948 2944 2941 2939 2937 2934 2932 2930 2928 2926 2924 2923 2921 2919 2918 2916 2915 2913 2911 2910 2908 2906 2905
3121 3120 3118 3116 3115 3114 3112 3111 3110 3109 3107 3106 3104 3103 3102 3101 3099 3100 3099 3096 3095 3091 3088 3090 3079 3061 3058 3062 3058 3056 3054 3051 3049 3045 3040 3036 3032 3028 3024 3020 3017 3013 3009 3006 3003 3000 2997 2994 2991 2988 2983 2978 2973 2969 2965 2962 2959 2957 2956 2955 2951 2948 2945 2942 2939 2935 2933 2931 2928 2926 2924 2922 2921 2919 2917 2915 2914 2912 2910 2909 2907 2905 2904 2902 2900 2899
3120 3119 3118 3116 3114 3112 3110 3109 3109 3107 3106 3104 3102 3101 3099 3098 3098 3097 3096 3095 3092 3086 3085 3086 3072 3056 3057 3059 3055 3053 3051 3047 3045 3041 3036 3032 3028 3024 3021 3017 3014 3010 3006 3003 2999 2996 2993 2989 2986 2983 2979 2974 2969 2964 2960 2955 2951 2949 2948 2947 2944 2941 2938 2936 2932 2929 2926 2924 2922 2920 2919 2917 2915 2913 2911 2909 2907 2906 2904 2902 2901 2899 2897 2896 2894 2892
3119 3119 3118 3116 3115 3114 3111 3109 3108 3106 3105 3103 3101 3100 3097 3096 3096 3094 3094 3094 3089 3081 3080 3078 3064 3051 3053 3055 3051 3050 3047 3043 3040 3037 3034 3030 3026 3022 3019 3015 3012 3008 3003 2999 2996 2992 2989 2985 2982 2979 2975 2971 2965 2960 2956 2951 2946 2942 2940 2939 2937 2934 2932 2929 2926 2923 2920 2918 2916 2915 2913 2911 2909 2907 2905 2903 2902 2900 2898 2896 2895 2893 2891 2890 2888 2886
3119 3118 3117 3116 3115 3113 3111 3109 3108 3106 3104 3101 3100 3098 3096 3093 3092 3091 3091 3089 3083 3078 3074 3069 3061 3053 3049 3050 3049 3047 3044 3040 3037 3034 3030 3027 3023 3018 3014 3010 3006 3002 2998 2994 2991 2988 2984 2981 2978 2974 2970 2967 2962 2957 2952 2947 2941 2936 2934 2933 2930 2927 2925 2923 2920 2917 2915 2913 2911 2909 2907 2905 2903 2901 2899 2898 2896 2894 2893 2891 2889 2887 2886 2884 2882 2881
3118 3116 3116 3114 3112 3111 3109 3107 3106 3105 3102 3099 3097 3095 3094 3092 3089 3087 3086 3081 3080 3078 3068 3060 3061 3057 3047 3046 3046 3043 3040 3037 3032 3029 3025 3021 3017 3013 3008 3004 3000 2996 2993 2989 2986 2983 2979 2976 2972 2968 2964 2961 2957 2952 2947 2942 2937 2931 2928 2927 2925 2921 2919 2916 2914 2911 2909 2907 2905 2903 2901 2899 2897 2895 2894 2892 2890 2888 2887 2885 2883 2882 2880 2879 2877 2875
3117 3115 3114 3112 3110 3109 3108 3106 3104 3102 3099 3097 3094 3092 3090 3089 3086 3082 3079 3077 3078 3075 3063 3056 3058 3054 3045 3043 3042 3039 3036 3032 3027 3023 3020 3016 3012 3008 3003 2999 2995 2992 2989 2986 2982 2979 2975 2970 2966 2962 2958 2954 2950 2946 2942 2937 2931 2925 2922 2920 2918 2915 2912 2909 2907 2905 2903 2901 2899 2898 2895 2893 2891 2890 2888 2886 2885 2883 2881 2880 2878 2876 2875 2873 2871 2870
3116 3114 3112 3110 3108 3106 3105 3104 3101 3099 3097 3093 3090 3088 3086 3085 3083 3079 3075 3074 3073 3068 3060 3056 3053 3047 3042 3040 3038 3035 3032 3027 3023 3019 3015 3012 3007 3003 2999 2995 2991 2988 2984 2980 2976 2972 2968 2964 2960 2956 2952 2947 2944 2940 2936 2931 2926 2920 2916 2914 2911 2907 2905 2902 2900 2899 2897 2895 2893 2891 2889 2887 2885 2884 2882 2880 2879 2877 2875 2874 2872 2871 2869 2867 2866 2864
3115 3113 3111 3109 3105 3102 3102 3101 3098 3096 3094 3089 3085 3084 3082 3080 3079 3076 3073 3071 3069 3064 3058 3056 3050 3042 3038 3038 3034 3031 3028 3024 3020 3016 3011 3007 3003 2998 2994 2990 2985 2982 2978 2974 2970 2965 2961 2957 2953 2949 2944 2940 2937 2933 2929 2925 2920 2915 2911 2908 2904 2901 2898 2896 2894 2892 2890 2888 2887 2885 2883 2881 2879 2878 2876 2874 2873 2871 2869 2868 2866 2865 2863 2862 2860 2859
3114 3111 3109 3107 3103 3099 3099 3098 3095 3093 3090 3085 3081 3080 3079 3077 3074 3072 3070 3069 3067 3062 3057 3054 3047 3038 3035 3035 3031 3026 3023 3020 3015 3011 3007 3002 2998 2993 2988 2984 2980 2976 2971 2967 2962 2958 2954 2950 2945 2941 2937 2933 2930 2926 2922 2918 2913 2909 2905 2902 2898 2894 2892 2889 2887 2886 2884 2882 2881 2879 2877 2875 2873 2871 2870 2868 2867 2865 2864 2862 2860 2859 2857 2855 2854 2853
3113 3110 3108 3107 3101 3096 3096 3096 3093 3091 3087 3081 3078 3077 3076 3073 3071 3068 3067 3065 3064 3060 3055 3049 3042 3036 3033 3031 3026 3021 3018 3014 3010 3006 3002 2997 2992 2988 2983 2979 2974 2969 2964 2960 2956 2951 2947 2943 2938 2934 2929 2926 2922 2918 2914 2910 2906 2903 2899 2895 2891 2888 2885 2883 2881 2879 2878 2876 2874 2873 2871 2869 2867 2865 2864 2862 2861 2859 2858 2856 2854 2853 2851 2849 2848 2846
3111 3108 3106 3105 3100 3094 3093 3093 3091 3089 3085 3078 3075 3075 3073 3070 3068 3065 3063 3062 3060 3057 3052 3045 3038 3034 3031 3028 3023 3017 3012 3008 3005 3001 2997 2992 2987 2982 2977 2973 2967 2962 2958 2953 2948 2944 2939 2935 2931 2927 2923 2919 2915 2911 2905 2901 2898 2896 2892 2888 2884 2881 2878 2876 2874 2873 2872 2870 2868 2866 2865 2863 2861 2859 2858 2856 2855 2853 2852 2850 2848 2847 2845 2843 2842 2840
3108 3107 3104 3103 3099 3093 3091 3091 3089 3084 3080 3076 3074 3072 3070 3067 3065 3061 3057 3057 3055 3051 3046 3040 3035 3032 3028 3023 3019 3014 3008 3003 2999 2995 2992 2988 2983 2976 2970 2965 2961 2956 2950 2945 2940 2936 2932 2927 2923 2919 2916 2912 2907 2903 2898 2894 2891 2888 2884 2880 2876 2874 2872 2870 2868 2867 2865 2863 2862 2860 2859 2857 2855 2853 2852 2850 2848 2847 2846 2844 2842 2841 2839 2837 2836 2835
3106 3105 3102 3100 3097 3093 3090 3090 3086 3077 3072 3072 3071 3069 3067 3064 3062 3056 3049 3048 3049 3046 3040 3036 3031 3027 3023 3018 3014 3009 3003 2997 2992 2989 2987 2982 2976 2970 2964 2958 2954 2949 2944 2940 2936 2931 2926 2921 2916 2912 2908 2904 2900 2896 2892 2888 2885 2881 2877 2873 2869 2867 2865 2863 2862 2861 2859 2857 2855 2854 2853 2851 2849 2847 2845 2844 2842 2841 2840 2838 2836 2835 2833 2832 2830 2829
3105 3103 3101 3098 3096 3092 3089 3086 3081 3073 3068 3067 3066 3065 3064 3061 3059 3055 3045 3040 3043 3043 3037 3031 3027 3022 3018 3013 3009 3004 2999 2990 2983 2982 2981 2976 2970 2965 2959 2954 2950 2945 2941 2937 2931 2926 2920 2914 2909 2905 2901 2897 2893 2889 2886 2883 2879 2875 2870 2865 2862 2860 2858 2857 2856 2854 2852 2851 2850 2848 2847 2845 2843 2841 2839 2838 2836 2835 2834 2832 2831 2829 2827 2826 2825 2823
3103 3101 3100 3098 3094 3092 3088 3083 3079 3073 3066 3063 3063 3063 3062 3058 3056 3053 3044 3037 3038 3038 3033 3028 3023 3018 3014 3009 3003 2998 2993 2984 2976 2974 2976 2972 2966 2961 2956 2951 2947 2941 2935 2929 2922 2917 2912 2907 2902 2898 2894 2890 2887 2884 2881 2877 2872 2867 2862 2858 2855 2853 2852 2851 2850 2848 2846 2845 2844 2843 2841 2839 2837 2835 2834 2832 2831 2829 2828 2826 2825 2823 2822 2820 2819 2818
3101 3099 3098 3096 3091 3090 3088 3084 3080 3073 3064 3061 3062 3061 3059 3056 3053 3050 3042 3035 3034 3034 3030 3025 3020 3015 3010 3004 2999 2994 2990 2981 2972 2969 2970 2967 2962 2957 2951 2945 2939 2933 2926 2921 2915 2909 2904 2899 2895 2890 2886 2882 2880 2877 2874 2870 2864 2859 2854 2851 2849 2847 2846 2845 2844 2842 2841 2840 2839 2837 2835 2834 2831 2830 2828 2826 2825 2824 2822 2821 2819 2818 2816 2815 2813 2812
3098 3096 3095 3092 3088 3087 3085 3082 3076 3068 3062 3061 3061 3059 3056 3053 3050 3047 3041 3034 3032 3031 3027 3022 3016 3011 3006 3001 2996 2991 2987 2980 2971 2966 2965 2961 2955 2950 2944 2937 2930 2924 2918 2913 2908 2902 2896 2891 2887 2883 2878 2875 2873 2869 2865 2861 2856 2852 2848 2845 2843 2842 2841 2839 2838 2837 2836 2835 2833 2832 2830 2828 2826 2824 2822 2821 2820 2818 2817 2815 2814 2812 2811 2809 2808 2806
3095 3093 3091 3088 3085 3084 3082 3078 3070 3062 3060 3061 3059 3057 3055 3051 3048 3045 3039 3033 3030 3027 3022 3018 3013 3007 3002 2997 2992 2987 2982 2977 2970 2963 2959 2954 2947 2942 2936 2930 2924 2918 2913 2907 2902 2896 2889 2883 2879 2876 2872 2869 2865 2861 2856 2852 2848 2845 2842 2839 2838 2837 2835 2834 2833 2832 2831 2830 2829 2827 2825 2823 2821 2819 2817 2816 2814 2813 2811 2810 2808 2807 2805 2804 2803 2801
3093 3090 3087 3085 3082 3080 3078 3075 3068 3060 3058 3059 3057 3055 3053 3050 3046 3042 3036 3031 3027 3022 3017 3013 3008 3003 2998 2992 2987 2982 2976 2971 2966 2959 2953 2947 2940 2934 2928 2922 2916 2911 2906 2901 2895 2889 2882 2877 2873 2869 2865 2861 2857 2852 2848 2844 2841 2838 2836 2835 2833 2832 2830 2829 2828 2827 2826 2825 2824 2822 2820 2818 2816 2814 2812 2811 2809 2808 2806 2805 2803 2802 2800 2799 2798 2796
3092 3088 3084 3081 3080 3077 3074 3072 3067 3061 3057 3057 3055 3053 3051 3048 3043 3038 3031 3026 3022 3018 3013 3008 3003 2999 2993 2986 2981 2976 2970 2965 2960 2953 2946 2940 2934 2927 2921 2916 2910 2904 2898 2892 2887 2881 2876 2871 2866 2862 2858 2854 2849 2845 2841 2837 2834 2833 2831 2830 2828 2827 2825 2825 2824 2823 2822 2820 2818 2817 2815 2813 2811 2809 2807 2806 2804 2803 2801 2800 2798 2797 2795 2794 2792 2791
3088 3086 3083 3079 3078 3076 3072 3067 3064 3061 3058 3056 3054 3051 3048 3044 3039 3034 3027 3021 3017 3014 3009 3003 2998 2994 2988 2981 2975 2970 2965 2959 2952 2946 2939 2933 2927 2922 2916 2910 2904 2897 2891 2885 2880 2875 2870 2865 2860 2856 2851 2846 2842 2838 2835 2832 2829 2828 2827 2825 2824 2822 2821 2820 2819 2818 2817 2816 2814 2812 2810 2808 2806 2804 2803 2801 2799 2798 2797 2795 2794 2792 2791 2789 2787 2786
3084 3083 3080 3076 3074 3073 3067 3062 3060 3059 3058 3055 3051 3047 3044 3040 3035 3031 3025 3019 3014 3010 3005 2999 2993 2988 2984 2977 2971 2965 2958 2952 2946 2940 2933 2927 2921 2916 2910 2903 2897 2890 2884 2879 2874 2868 2863 2858 2853 2849 2844 2840 2836 2832 2830 2827 2825 2824 2823 2821 2819 2818 2817 2816 2815 2814 2813 2811 2809 2807 2805 2803 2802 2800 2798 2797 2795 2793 2792 2791 2789 2788 2786 2785 2783 2781
3079 3078 3075 3071 3068 3065 3059 3056 3056 3055 3052 3050 3047 3043 3040 3036 3032 3028 3023 3017 3012 3007 3002 2996 2989 2984 2978 2972 2966 2959 2953 2947 2940 2934 2928 2921 2915 2910 2904 2897 2891 2884 2878 2873 2867 2862 2857 2852 2847 2842 2838 2834 2831 2828 2825 2824 2821 2820 2819 2817 2816 2815 2814 2813 2812 2810 2808 2807 2805 2803 2801 2799 2797 2796 2794 2793 2791 2789 2788 2786 2785 2783 2782 2780 2778 2776
3075 3074 3070 3066 3064 3060 3052 3050 3052 3051 3047 3045 3043 3040 3037 3033 3029 3025 3020 3014 3009 3003 2998 2992 2986 2980 2974 2967 2960 2954 2948 2942 2935 2928 2922 2916 2910 2904 2897 2890 2884 2878 2873 2867 2861 2856 2851 2846 2841 2836 2832 2829 2826 2824 2822 2820 2818 2816 2815 2814 2812 2811 2810 2810 2808 2806 2804 2803 2801 2799 2797 2795 2793 2792 2790 2788 2787 2785 2784 2782 2780 2779 2778 2776 2774 2772
3073 3070 3066 3062 3060 3056 3049 3046 3047 3045 3043 3042 3040 3036 3033 3028 3023 3020 3015 3009 3004 2999 2993 2987 2981 2975 2969 2963 2956 2950 2943 2937 2930 2922 2916 2910 2904 2897 2891 2884 2878 2872 2867 2861 2856 2851 2845 2840 2835 2831 2828 2825 2822 2820 2818 2816 2815 2814 2812 2810 2809 2808 2807 2806 2804 2802 2800 2799 2797 2795 2793 2791 2789 2788 2786 2785 2783 2781 2780 2778 2777 2775 2773 2772 2769 2767
3071 3067 3064 3060 3055 3051 3048 3046 3043 3038 3036 3038 3037 3033 3029 3023 3017 3013 3009 3004 2999 2994 2988 2983 2976 2969 2962 2957 2951 2945 2938 2931 2925 2918 2911 2904 2897 2891 2884 2878 2873 2867 2861 2856 2851 2845 2840 2836 2831 2828 2825 2822 2819 2817 2816 2814 2812 2811 2809 2808 2807 2805 2804 2802 2800 2798 2797 2795 2793 2791 2789 2787 2786 2784 2782 2781 2779 2778 2776 2775 2773 2771 2769 2768 2765 2762
3067 3064 3061 3057 3052 3048 3046 3045 3042 3036 3031 3031 3031 3028 3023 3018 3013 3008 3004 2999 2994 2988 2983 2978 2972 2966 2959 2952 2946 2940 2933 2926 2920 2913 2906 2899 2892 2885 2879 2873 2868 2862 2857 2851 2846 2841 2837 2832 2828 2825 2822 2819 2817 2815 2814 2812 2810 2808 2807 2806 2804 2803 2801 2799 2797 2795 2793 2791 2789 2787 2785 2784 2782 2781 2779 2777 2776 2774 2773 2771 2770 2767 2765 2763 2761 2759
3064 3061 3058 3055 3050 3047 3045 3044 3041 3037 3031 3029 3027 3023 3018 3013 3008 3003 2998 2994 2989 2984 2978 2972 2967 2962 2956 2950 2943 2936 2928 2921 2914 2907 2900 2894 2888 2882 2876 2869 2863 2857 2852 2847 2842 2837 2833 2830 2826 2823 2820 2818 2816 2814 2812 2810 2808 2806 2805 2804 2802 2800 2798 2796 2794 2792 2790 2788 2786 2784 2782 2781 2779 2778 2776 2774 2772 2771 2769 2768 2766 2765 2762 2759 2757 2755